Dewpoint
61 62 60 60 60 62 64 63 63 62 61 61 59 60 64 63 65 64 64 64 65 63 63 63 64 65 66 65 65 65 65 64 65 64 64 64 63 62 64 63 62 64
61 62 64 61 62 65 64 63 62 61 61 61 60 62 63 63 64 64 63 64 65 64 63 63 63 63 62 63 63 63 62 63 63 66 64 64 64 63 63 63 62 62
61 61 62 60 61 64 63 62 62 61 60 60 61 62 62 64 63 63 63 64 64 64 62 62 62 63 63 62 63 63 63 62 63 63 64 64 64 63 64 64 62 62
60 61 60 60 61 62 62 62 61 60 60 61 60 62 62 63 64 63 63 68 63 62 62 62 63 62 62 63 62 62 62 62 63 63 63 64 65 64 64 64 63 62
60 60 60 60 61 61 61 61 61 59 60 60 60 61 64 63 63 62 62 62 64 62 62 63 63 62 62 62 62 62 62 63 63 62 62 63 64 64 64 63 63 62
60 61 61 61 61 60 60 59 60 60 59 59 59 62 62 62 62 62 62 61 62 63 62 62 61 62 61 62 61 62 62 63 63 62 62 63 63 63 64 63 63 62
60 61 60 61 61 60 60 59 59 61 59 59 60 61 62 62 62 62 62 62 62 63 62 61 60 60 61 61 60 61 61 62 61 61 62 63 63 63 63 63 63 63
59 60 60 61 61 61 60 60 60 60 60 60 60 60 62 62 62 62 63 62 61 61 61 61 61 61 62 61 62 61 61 61 62 61 62 63 62 62 63 63 63 63
59 59 60 60 60 61 60 60 60 61 61 60 60 60 62 62 62 62 62 62 61 61 61 61 61 62 62 61 61 60 60 61 62 61 61 61 61 61 62 61 61 62
60 60 60 60 60 62 61 60 60 60 62 60 60 60 61 62 62 61 61 61 61 61 61 61 61 61 61 60 60 61 61 61 61 61 61 61 61 61 61 61 61 61
61 64 64 63 61 62 62 61 59 59 61 60 60 61 61 61 63 62 61 61 61 61 61 61 61 61 60 59 59 60 61 61 61 61 61 60 60 60 62 61 61 61
64 64 64 63 62 61 61 60 59 59 60 61 61 60 61 61 61 62 63 61 61 61 61 61 60 60 59 59 60 60 61 61 62 61 61 60 60 60 60 61 61 61
65 64 64 63 62 61 61 60 60 59 59 60 62 61 60 61 61 61 63 62 61 61 60 60 60 59 59 59 60 61 61 61 61 61 61 61 61 61 61 61 61 61
64 63 63 62 61 61 60 60 60 60 60 60 61 61 60 60 60 61 60 61 60 60 60 60 59 59 59 60 61 61 61 61 61 61 60 60 60 60 61 61 61 61
65 64 63 64 63 62 61 61 61 60 60 60 61 61 61 60 60 60 59 59 59 59 59 60 60 60 60 60 60 60 60 61 61 61 60 60 60 60 59 60 60 60
64 64 63 64 63 62 61 61 61 61 60 60 59 59 59 59 58 58 58 58 58 59 59 60 60 60 62 61 62 61 60 61 61 60 60 60 60 60 60 60 60 60
64 64 64 63 63 62 62 61 61 61 61 60 59 59 58 58 58 57 57 58 58 58 58 59 60 60 60 60 61 62 62 60 60 60 60 60 60 60 60 60 60 60
64 63 63 63 63 62 61 61 61 61 60 60 59 59 59 59 59 58 59 59 59 59 59 59 59 60 59 59 60 61 62 62 60 60 60 60 59 59 59 59 59 58
63 63 63 62 61 62 62 62 61 61 60 60 59 59 59 59 59 60 60 60 60 60 59 60 60 60 58 59 59 59 60 61 60 60 59 59 59 59 59 58 58 58
64 62 62 62 62 62 61 61 61 60 60 60 60 60 59 59 59 59 60 60 60 60 60 60 60 59 58 57 57 58 58 60 60 59 59 58 58 58 58 57 57 58
63 63 62 62 62 62 61 61 61 60 60 60 60 59 59 59 59 59 59 60 60 61 61 60 61 58 57 56 56 56 57 59 58 58 58 58 57 57 57 57 57 58
63 63 63 63 62 61 60 60 60 60 60 60 60 59 59 59 60 59 59 60 60 61 61 61 61 58 57 56 55 55 57 59 57 57 57 56 56 56 57 58 58 58
63 63 63 62 62 61 60 60 60 60 60 60 60 59 59 59 59 59 60 60 60 61 61 60 60 59 56 54 54 55 56 57 56 56 55 55 56 56 56 57 58 58
63 63 63 62 62 61 60 60 60 60 60 61 60 59 59 58 59 59 60 60 60 60 60 60 60 59 56 54 54 55 56 56 55 55 54 55 55 55 56 56 58 62
64 64 64 62 62 61 61 60 60 60 60 60 60 59 59 59 60 59 59 59 60 60 62 60 59 58 55 54 53 53 56 54 55 55 54 55 55 56 55 55 56 58
64 64 63 62 62 62 61 61 61 60 60 60 60 59 59 59 60 59 58 58 58 60 61 60 59 58 59 51 50 51 55 56 55 54 55 55 54 55 56 54 54 54